Location: Montreal
(45.5087°N, 73.5540°W)
Time: 08:25:55
(UTC-04:00)

ISS - Visible Passes

Search period start: 25 May 2017 00:00
Search period end: 04 June 2017 00:00
Orbit: 402 x 409 km, 51.6° (Epoch: 25 May)

Date Brightness Start Highest point End Pass type
(mag) Time Alt. Az. Time Alt. Az. Time Alt. Az.
25 May -1.6 01:18:48 10° NW 01:21:42 28° N 01:24:36 10° ENE visible
25 May -3.5 02:55:20 10° WNW 02:58:36 66° NNE 03:01:52 10° ESE visible
25 May -2.5 04:32:18 10° W 04:34:50 21° SW 04:37:22 10° S visible
25 May -3.2 21:13:00 10° SSW 21:16:02 35° SE 21:19:05 10° ENE visible
25 May -2.7 22:49:17 10° W 22:52:29 45° NNW 22:55:41 10° NE visible
26 May -1.6 00:26:37 10° WNW 00:29:30 27° N 00:32:21 10° ENE visible
26 May -2.7 02:03:19 10° NW 02:06:30 44° NNE 02:09:40 10° E visible
26 May -3.3 03:39:55 10° WNW 03:42:58 36° SW 03:45:59 10° SSE visible
26 May -3.4 21:57:05 10° WSW 22:00:23 67° NNW 22:03:40 10° ENE visible
26 May -1.6 23:34:21 10° WNW 23:37:16 28° N 23:40:10 10° NE visible
27 May -2.1 01:11:17 10° NW 01:14:20 34° NNE 01:17:22 10° E visible
27 May -3.9 02:47:45 10° WNW 02:51:00 63° SSW 02:54:14 10° SE visible
27 May -3.9 21:05:01 10° SW 21:08:19 75° SSE 21:11:37 10° ENE visible
27 May -1.9 22:42:02 10° WNW 22:45:03 32° NNW 22:48:03 10° NE visible
28 May -1.8 00:19:11 10° NW 00:22:08 29° N 00:25:03 10° ENE visible
28 May -2.5 01:55:40 10° WNW 01:57:36 32° NW 01:57:36 32° NW visible
28 May -2.4 21:49:41 10° W 21:52:50 40° NNW 21:56:00 10° NE visible
28 May -1.6 23:27:00 10° WNW 23:29:52 27° N 23:32:45 10° ENE visible
29 May -2.8 01:03:37 10° NW 01:06:24 46° N 01:06:24 46° N visible
29 May -1.6 22:34:43 10° WNW 22:37:36 27° N 22:40:30 10° ENE visible
30 May -2.4 00:11:33 10° NW 00:14:40 37° NNE 00:15:34 30° NE visible
30 May -1.0 01:48:02 10° WNW 01:48:11 11° WNW 01:48:11 11° WNW visible
30 May -1.8 21:42:22 10° WNW 21:45:20 30° N 21:48:19 10° NE visible
30 May -1.9 23:19:27 10° NW 23:22:26 30° N 23:24:52 13° ENE visible
31 May -2.0 00:55:54 10° WNW 00:57:30 26° WNW 00:57:30 26° WNW visible
31 May -1.7 22:27:15 10° WNW 22:30:09 27° N 22:33:02 10° ENE visible
01 Jun -3.3 00:03:48 10° WNW 00:06:54 58° N 00:06:54 58° N visible
01 Jun -1.7 21:34:58 10° WNW 21:37:50 27° N 21:40:43 10° ENE visible
01 Jun -2.6 23:11:42 10° NW 23:14:52 41° NNE 23:16:22 25° ENE visible
02 Jun -1.3 00:48:15 10° WNW 00:49:00 15° WNW 00:49:00 15° WNW visible
02 Jun -2.2 22:19:34 10° NW 22:22:36 32° NNE 22:25:37 10° ENE visible
02 Jun -3.1 23:56:01 10° WNW 23:58:29 46° WNW 23:58:29 46° WNW visible
03 Jun -1.9 21:27:22 10° NW 21:30:18 28° N 21:33:13 10° ENE visible
03 Jun -3.7 23:03:52 10° WNW 23:07:10 69° NNE 23:08:00 45° E visible
